Date,TemperatureHighF,TemperatureAvgF,TemperatureLowF,DewpointHighF,DewpointAvgF,DewpointLowF,HumidityHigh,HumidityAvg,HumidityLow,PressureMaxIn,PressureMinIn,WindSpeedMaxMPH,WindSpeedAvgMPH,GustSpeedMaxMPH,PrecipitationSumIn
2013-1-1,15,7,0,5,1,-4,85,75,63,30.12,30.01,11,5,11,0.00
2013-1-2,24,18,11,17,11,4,84,75,59,30.03,29.92,13,6,13,0.00
2013-1-3,27,20,10,21,16,5,86,82,76,30.11,29.93,17,8,17,0.00
2013-1-4,30,20,9,20,14,5,87,79,65,30.07,29.96,22,10,22,0.00
2013-1-5,33,22,12,28,18,8,92,84,77,30.10,29.83,15,6,15,0.00
2013-1-6,29,22,14,22,17,10,85,80,75,30.16,29.96,22,5,22,0.00
2013-1-7,35,25,12,25,19,8,86,77,66,30.15,29.91,24,8,24,0.01
2013-1-8,40,31,19,31,26,16,93,80,66,29.98,29.81,21,5,21,0.04
2013-1-9,39,33,22,31,25,17,85,74,60,30.34,29.80,27,10,27,0.01
2013-1-10,39,30,19,33,25,16,93,82,67,30.36,29.76,18,6,18,0.26
2013-1-11,46,39,35,43,37,33,95,94,89,29.76,29.49,17,6,17,0.02
2013-1-12,46,34,22,43,27,15,90,78,68,29.91,29.50,32,12,32,0.02
2013-1-13,22,16,12,15,9,4,76,71,64,30.08,29.80,21,7,21,0.00
2013-1-14,24,15,7,11,7,2,81,71,55,30.31,30.08,16,5,16,0.00
2013-1-15,29,19,10,16,11,5,84,72,53,30.28,29.94,16,5,16,0.00
2013-1-16,33,26,17,28,19,10,83,75,63,29.95,29.65,26,9,26,0.00
2013-1-17,27,19,13,21,8,3,79,61,47,30.27,29.95,17,4,17,0.00
2013-1-18,41,29,13,32,22,7,81,75,67,30.28,29.71,29,9,29,0.00
2013-1-19,45,36,15,34,27,3,84,71,37,29.86,29.55,35,11,35,0.00
2013-1-20,15,9,6,7,-1,-2,73,62,49,30.19,29.86,28,8,28,0.00
2013-1-21,10,3,-3,2,-7,-12,75,63,51,30.14,29.99,22,9,22,0.00
2013-1-22,8,1,-7,-4,-8,-13,77,66,55,30.22,30.14,16,5,16,0.00
2013-1-23,19,12,3,13,4,-6,84,70,61,30.29,29.95,22,7,22,0.00
2013-1-24,16,7,-2,9,-2,-8,75,67,55,30.51,30.19,14,5,14,0.00
2013-1-25,27,19,13,17,12,6,84,73,60,30.19,29.81,19,8,19,0.00
2013-1-26,25,17,6,14,8,1,80,68,53,30.26,30.07,12,4,12,0.00
2013-1-27,33,28,21,31,22,12,93,80,67,30.19,29.73,18,7,18,0.00
2013-1-28,43,36,33,36,32,30,94,87,74,29.84,29.65,17,4,17,0.27
2013-1-29,54,42,34,52,40,32,96,93,88,29.68,29.39,16,6,16,2.01
2013-1-30,34,26,14,33,24,10,94,90,84,29.51,29.24,17,2,17,0.07
2013-1-31,14,10,0,10,3,-6,83,75,64,30.01,29.51,21,5,21,0.00